Weather in Koz'ye

Russia / Tula Oblast     53°15′28″N   38°27′31″E
temp.,
°C
wind,
m/s
gust,
m/s
humid.,
%
clouds,
%
prec.,
mm/h
press.,
hPa
HPBL,
m
14 june, mon
mon1400:00+16s229116 0.0 101018
03:00+15sse22915 0.0 101111
06:00+16s239011 0.0 101391
09:00+21sse227666 0.0 1014488
12:00+24sw116431 0.7 10141065
15:00+25ene115969 1.4 10141416
18:00+24ne12636 0.1 10141261
21:00+19e118131 0.8 101411
15 june, tue
tue1500:00+17nne01867 0.5 101411
03:00+16n118953 1.1 101411
06:00+18n118878 0.0 101452
09:00+22nne227996 1.1 1013203
12:00+25n116299 1.3 10131213
15:00+25nne1261100 2.2 10111288
18:00+23ese2278100 3.1 1011248
21:00+19wnw118174 3.2 101011
16 june, wed
wed1600:00+18nw1185100 0.0 101011
03:00+17nw229160 0.0 101014
06:00+18nnw249299 0.0 1010130
09:00+21nnw4580100 0.0 1011539
12:00+24nnw566916 0.0 10111230
15:00+23n677323 1.9 10131213
18:00+22n69750 0.3 1014936
21:00+17nne411880 0.3 1016270
17 june, thu
thu1700:00+15ne410901 0.0 1018198
03:00+13nne49900 0.0 1020168
06:00+13nne411800 0.0 1021281
09:00+18ne58640 0.0 1022559
12:00+20ne57530 0.0 10231337
15:00+21ne56550 0.0 10241500
18:00+20nne57680 0.0 1024829
21:00+15nne47790 0.0 1024104
18 june, fri
fri1800:00+14ne36800 0.0 102590
03:00+13ne34830 0.0 102650
06:00+14ne24842 0.0 1027113
09:00+19ene45670 0.0 1027563
12:00+22ene45570 0.0 10271537
15:00+23ene34540 0.0 10271610
18:00+22ene23660 0.0 10261417
21:00+17e12780 0.0 102711